Flag for Singapore Weather past 2 weeks in Singapore, Singapore

Now
90 °F

Partly sunny.


Feels Like: 103 °F
Forecast: 78 / 89 °F
Wind: 10 mph from South

Location: Singapore / Paya Lebar

Current Time: Aug 29, 2015 at 5:44:42 PM

Latest Report: Aug 29, 2015 at 5:00 PM


Visibility: N/A

Pressure: 29.74 "Hg

Humidity: 67%

Dew point: 77 °F

Location of SingaporeLocation

Historic Weather in Singapore — Graph

°F

Singapore temperature yesterday

Maximum temperature yesterday: 91 °F (at 1:00 PM)
Minimum temperature yesterday: 81 °F (at 6:00 AM)
Average temperature yesterday: 86 °F

Past Weeks' High & Low Weather Summary

 TemperatureHumidityPressure
High91 °F (Aug 14, 3:00 PM)94% (Aug 27, 5:00 AM)29.92 "Hg (Aug 27, 5:00 AM)
Low79 °F (Aug 27, 5:00 AM)44% (Aug 18, 5:00 PM)29.74 "Hg (Aug 22, 4:00 PM)
Average86 °F73%29.84 "Hg
* Reported Aug 14 3:00 PM — Aug 29 3:00 PM, Singapore, Weather by CustomWeather, © 2015

Note: Actual official high and low records may vary slightly from our data, if they occured in-between our weather recording intervals... More about our weather records

Advertising

Singapore weather history for previous 24 hours

 ConditionsComfort  
Time TempWeatherWind HumidityBarometerVisibility
3:00 PM
Sat, Aug 29
91 °FPartly sunny.8 mph59%29.77 "HgN/A
2:00 PM91 °FPartly sunny.9 mph59%29.80 "HgN/A
1:00 PM90 °FPartly sunny.10 mph63%29.83 "HgN/A
12:00 PM90 °FPartly sunny.9 mph63%29.86 "HgN/A
11:00 AM88 °FPartly sunny.13 mph70%29.89 "Hg5 mi
10:00 AM86 °FPartly sunny.8 mph75%29.86 "Hg5 mi
9:00 AM84 °FPartly sunny.8 mph79%29.86 "Hg4 mi
8:00 AM84 °FPartly sunny.7 mph79%29.83 "Hg4 mi
7:00 AM82 °FPassing clouds.3 mph84%29.83 "Hg5 mi
6:00 AM84 °FPassing clouds.7 mph79%29.83 "HgN/A
5:00 AM84 °FPassing clouds.6 mph79%29.83 "HgN/A
11:00 PM
Fri, Aug 28
84 °FPassing clouds.6 mph79%29.86 "HgN/A
10:00 PM84 °FPartly cloudy.8 mph79%29.86 "HgN/A
9:00 PM86 °FPassing clouds.8 mph70%29.83 "HgN/A
8:00 PM86 °FPassing clouds.6 mph75%29.80 "HgN/A
7:00 PM86 °FPartly sunny.7 mph75%29.80 "HgN/A
6:00 PM86 °FPartly sunny.6 mph75%29.80 "Hg5 mi
5:00 PM88 °FPartly sunny.9 mph70%29.77 "Hg5 mi
Weather by CustomWeather, © 2015

See weather overviewHow to use our weather pages